EN

Hourly Weather London

Today, 2 October, Friday

Time Temperature Precipitation Wind Pressure Humidity
00:00 +12°C° 0 mm 5 mps 741 mmHg 76%
01:00 +11°C° 0.1 mm 6 mps 741 mmHg 75%
02:00 +11°C° 0.1 mm 6 mps 740 mmHg 74%
03:00 +11°C° 0.1 mm 7 mps 739 mmHg 74%
04:00 +11°C° 0.8 mm 7 mps 739 mmHg 76%
05:00 +11°C° 0.8 mm 8 mps 739 mmHg 79%
06:00 +11°C° 0.8 mm 8 mps 738 mmHg 82%
07:00 +11°C° 1.5 mm 8 mps 738 mmHg 84%
08:00 +11°C° 1.5 mm 8 mps 739 mmHg 86%
09:00 +11°C° 1.5 mm 8 mps 739 mmHg 87%
10:00 +11°C° 0.6 mm 7 mps 739 mmHg 87%
11:00 +11°C° 0.6 mm 7 mps 740 mmHg 87%
12:00 +13°C° 0.6 mm 6 mps 740 mmHg 87%
13:00 +13°C° 0.4 mm 6 mps 740 mmHg 87%
14:00 +13°C° 0.4 mm 5 mps 740 mmHg 88%
15:00 +13°C° 0.4 mm 5 mps 740 mmHg 89%
16:00 +13°C° 1 mm 5 mps 740 mmHg 91%
17:00 +13°C° 1 mm 5 mps 740 mmHg 92%
18:00 +13°C° 1 mm 5 mps 740 mmHg 93%
19:00 +13°C° 1.4 mm 6 mps 740 mmHg 93%
20:00 +13°C° 1.4 mm 6 mps 740 mmHg 92%
21:00 +14°C° 1.4 mm 6 mps 740 mmHg 92%
22:00 +14°C° 2.4 mm 7 mps 740 mmHg 92%
23:00 +14°C° 2.4 mm 7 mps 739 mmHg 92%

Tomorrow, 3 October, Saturday

Time Temperature Precipitation Wind Pressure Humidity
00:00 +13°C° 2.4 mm 8 mps 739 mmHg 92%
01:00 +14°C° 2.1 mm 7 mps 739 mmHg 92%
02:00 +14°C° 2.1 mm 6 mps 739 mmHg 92%
03:00 +14°C° 2.1 mm 5 mps 739 mmHg 92%
04:00 +14°C° 2.9 mm 4 mps 739 mmHg 93%
05:00 +13°C° 2.9 mm 4 mps 739 mmHg 93%
06:00 +13°C° 2.9 mm 3 mps 739 mmHg 93%
07:00 +13°C° 1.9 mm 3 mps 740 mmHg 93%
08:00 +13°C° 1.9 mm 3 mps 740 mmHg 92%
09:00 +12°C° 1.9 mm 3 mps 740 mmHg 91%
10:00 +13°C° 0.4 mm 3 mps 740 mmHg 88%
11:00 +13°C° 0.4 mm 3 mps 739 mmHg 85%
12:00 +13°C° 0.4 mm 3 mps 739 mmHg 81%
13:00 +13°C° 0.1 mm 3 mps 739 mmHg 80%
14:00 +14°C° 0.1 mm 3 mps 738 mmHg 78%
15:00 +14°C° 0.1 mm 3 mps 738 mmHg 77%
16:00 +13°C° 0.1 mm 3 mps 737 mmHg 79%
17:00 +13°C° 0.1 mm 3 mps 736 mmHg 80%
18:00 +12°C° 0.1 mm 3 mps 736 mmHg 82%
19:00 +12°C° 0 mm 3 mps 736 mmHg 82%
20:00 +13°C° 0 mm 2 mps 735 mmHg 82%
21:00 +12°C° 0 mm 2 mps 735 mmHg 82%
22:00 +12°C° 0 mm 2 mps 735 mmHg 82%
23:00 +12°C° 0 mm 1 mps 734 mmHg 83%

Day after tomorrow, 4 October, Sunday

Time Temperature Precipitation Wind Pressure Humidity
00:00 +11°C° 0 mm 1 mps 733 mmHg 83%
01:00 +11°C° 0 mm 1 mps 733 mmHg 85%
02:00 +11°C° 0 mm 1 mps 733 mmHg 86%
03:00 +11°C° 0 mm 1 mps 733 mmHg 88%
04:00 +11°C° 0 mm 1 mps 732 mmHg 89%
05:00 +11°C° 0 mm 1 mps 732 mmHg 90%
06:00 +10°C° 0 mm 2 mps 732 mmHg 91%
07:00 +12°C° 0 mm 2 mps 732 mmHg 88%
08:00 +13°C° 0 mm 2 mps 733 mmHg 85%
09:00 +13°C° 0 mm 2 mps 733 mmHg 82%
10:00 +13°C° 0.1 mm 3 mps 733 mmHg 78%
11:00 +14°C° 0.1 mm 3 mps 734 mmHg 75%
12:00 +14°C° 0.1 mm 4 mps 734 mmHg 71%
13:00 +16°C° 0.1 mm 3 mps 734 mmHg 70%
14:00 +16°C° 0.1 mm 3 mps 734 mmHg 68%
15:00 +16°C° 0.1 mm 3 mps 735 mmHg 66%
16:00 +14°C° 0 mm 3 mps 735 mmHg 70%
17:00 +14°C° 0 mm 2 mps 735 mmHg 75%
18:00 +14°C° 0 mm 2 mps 736 mmHg 79%
19:00 +13°C° 0 mm 2 mps 737 mmHg 80%
20:00 +13°C° 0 mm 2 mps 737 mmHg 82%
21:00 +13°C° 0 mm 2 mps 738 mmHg 84%
22:00 +13°C° 0 mm 2 mps 738 mmHg 84%
23:00 +13°C° 0 mm 2 mps 739 mmHg 85%

5 October, Monday

Time Temperature Precipitation Wind Pressure Humidity
00:00 +12°C° 0 mm 3 mps 739 mmHg 86%
01:00 +12°C° 0.7 mm 4 mps 739 mmHg 87%
02:00 +12°C° 0.7 mm 5 mps 739 mmHg 88%
03:00 +13°C° 0.7 mm 6 mps 739 mmHg 89%
04:00 +11°C° 0.2 mm 6 mps 740 mmHg 87%
05:00 +11°C° 0.2 mm 7 mps 740 mmHg 86%
06:00 +11°C° 0.2 mm 7 mps 741 mmHg 84%
07:00 +11°C° 0 mm 7 mps 741 mmHg 83%
08:00 +11°C° 0 mm 7 mps 742 mmHg 81%
09:00 +11°C° 0 mm 7 mps 742 mmHg 80%
10:00 +11°C° 0 mm 8 mps 743 mmHg 78%
11:00 +11°C° 0 mm 8 mps 744 mmHg 77%
12:00 +11°C° 0 mm 8 mps 744 mmHg 76%
13:00 +11°C° 0.1 mm 8 mps 745 mmHg 76%
14:00 +11°C° 0.1 mm 9 mps 745 mmHg 77%
15:00 +11°C° 0.1 mm 9 mps 745 mmHg 77%
16:00 +11°C° 0.1 mm 8 mps 746 mmHg 77%
17:00 +11°C° 0.1 mm 7 mps 746 mmHg 78%
18:00 +11°C° 0.1 mm 6 mps 747 mmHg 78%
19:00 +11°C° 0 mm 6 mps 747 mmHg 78%
20:00 +11°C° 0 mm 6 mps 748 mmHg 79%
21:00 +10°C° 0 mm 5 mps 748 mmHg 79%
22:00 +10°C° 0 mm 5 mps 748 mmHg 79%
23:00 +10°C° 0 mm 4 mps 748 mmHg 80%

6 October, Tuesday

Time Temperature Precipitation Wind Pressure Humidity
00:00 +10°C° 0 mm 4 mps 748 mmHg 80%
01:00 +10°C° 0 mm 3 mps 748 mmHg 79%
02:00 +10°C° 0 mm 3 mps 748 mmHg 79%
03:00 +10°C° 0 mm 2 mps 747 mmHg 79%
04:00 +10°C° 0 mm 2 mps 747 mmHg 81%
05:00 +10°C° 0 mm 2 mps 747 mmHg 84%
06:00 +10°C° 0 mm 2 mps 747 mmHg 86%
07:00 +12°C° 0.2 mm 1 mps 747 mmHg 86%
08:00 +12°C° 0.2 mm 1 mps 747 mmHg 86%
09:00 +13°C° 0.2 mm 1 mps 747 mmHg 86%
10:00 +13°C° 0.5 mm 1 mps 747 mmHg 86%
11:00 +13°C° 0.5 mm 1 mps 747 mmHg 87%
12:00 +14°C° 0.5 mm 1 mps 747 mmHg 87%
13:00 +14°C° 0.4 mm 2 mps 747 mmHg 83%
14:00 +13°C° 0.4 mm 3 mps 747 mmHg 79%
15:00 +14°C° 0.4 mm 4 mps 747 mmHg 74%
16:00 +13°C° 0.1 mm 4 mps 748 mmHg 76%
17:00 +12°C° 0.1 mm 4 mps 748 mmHg 78%
18:00 +12°C° 0.1 mm 3 mps 749 mmHg 80%
19:00 +11°C° 0 mm 4 mps 749 mmHg 81%
20:00 +11°C° 0 mm 4 mps 750 mmHg 82%
21:00 +10°C° 0 mm 5 mps 750 mmHg 83%
22:00 +10°C° 0 mm 4 mps 751 mmHg 84%
23:00 +10°C° 0 mm 4 mps 751 mmHg 86%

7 October, Wednesday

Time Temperature Precipitation Wind Pressure Humidity
00:00 +9°C° 0 mm 3 mps 751 mmHg 87%
01:00 +9°C° 0 mm 3 mps 752 mmHg 87%
02:00 +8°C° 0 mm 4 mps 752 mmHg 87%
03:00 +8°C° 0 mm 4 mps 753 mmHg 87%
04:00 +8°C° 0 mm 4 mps 753 mmHg 86%
05:00 +8°C° 0 mm 3 mps 753 mmHg 84%
06:00 +8°C° 0 mm 3 mps 754 mmHg 83%
07:00 +8°C° 0 mm 4 mps 754 mmHg 79%
08:00 +10°C° 0 mm 4 mps 754 mmHg 74%
09:00 +11°C° 0 mm 4 mps 754 mmHg 70%
10:00 +12°C° 0 mm 4 mps 754 mmHg 67%
11:00 +13°C° 0 mm 4 mps 754 mmHg 63%
12:00 +14°C° 0 mm 4 mps 754 mmHg 60%
13:00 +14°C° 0.1 mm 4 mps 754 mmHg 63%
14:00 +14°C° 0.1 mm 4 mps 754 mmHg 66%
15:00 +14°C° 0.1 mm 4 mps 754 mmHg 70%
16:00 +14°C° 0.2 mm 4 mps 753 mmHg 73%
17:00 +13°C° 0.2 mm 4 mps 753 mmHg 76%
18:00 +12°C° 0.2 mm 4 mps 753 mmHg 79%
19:00 +12°C° 0.1 mm 4 mps 753 mmHg 79%
20:00 +12°C° 0.1 mm 4 mps 753 mmHg 78%
21:00 +12°C° 0.1 mm 4 mps 753 mmHg 78%
22:00 +11°C° 0.1 mm 4 mps 753 mmHg 79%
23:00 +10°C° 0.1 mm 5 mps 753 mmHg 80%
Show more